Home > Weather > Uyo > Past weeks

Flag for Nigeria Weather for the Past 2 Weeks in Uyo, Nigeria

Now
81 °F

Passing clouds.


Feels Like: 87 °F
Forecast: 76 / 91 °F
Wind: No wind

Location: Malabo/Fernando Poo

Current Time: May 5, 2016 at 7:33:28 PM

Latest Report: May 5, 2016 at 6:00 PM


Visibility: N/A

Pressure: 29.86 "Hg

Humidity: 89%

Dew Point: 77 °F

Location of UyoLocation

Historic Weather in Uyo — Graph

°F

Uyo Temperature Yesterday

Maximum temperature yesterday: 88 °F (at 1:00 PM)
Minimum temperature yesterday: 75 °F (at 2:00 AM)
Average temperature yesterday: 80 °F

High & Low Weather Summary for the Past Weeks

 TemperatureHumidityPressure
High91 °F (Apr 30, 11:00 AM)94% (Apr 25, 4:00 PM)29.95 "Hg (Apr 25, 4:00 PM)
Low73 °F (May 3, 2:00 AM)59% (Apr 27, 11:00 AM)29.74 "Hg (Apr 24, 4:00 PM)
Average82 °F82%29.83 "Hg
* Reported Apr 22 11:00 PM — May 5 6:00 PM, Uyo, Weather by CustomWeather, © 2016

Note: Actual official high and low records may vary slightly from our data, if they occured in-between our weather recording intervals... More about our weather records

Advertising

Uyo Weather History for the Previous 24 Hours

Scroll right to see more
 ConditionsComfort  
Time TempWeatherWind HumidityBarometerVisibility
6:00 PM
Thu, May 5
81 °FPassing clouds.No wind89%29.86 "HgN/A
5:00 PM81 °FThunderstorms. Passing clouds.No wind89%29.83 "HgN/A
4:00 PM81 °FThunderstorms. Broken clouds.No wind89%29.86 "Hg5 mi
3:00 PM79 °FThunderstorms. Broken clouds.No wind94%29.89 "Hg4 mi
2:00 PM79 °FStrong thunderstorms. Mostly cloudy.16 mph89%29.89 "Hg1 mi
1:00 PM88 °FBroken clouds.7 mph75%29.92 "HgN/A
12:00 PM88 °FPassing clouds.8 mph70%29.92 "HgN/A
11:00 AM90 °FPassing clouds.5 mph67%29.95 "HgN/A
10:00 AM88 °FPassing clouds.2 mph66%29.92 "HgN/A
9:00 AM88 °FPassing clouds.2 mph66%29.92 "HgN/A
8:00 AM84 °FPassing clouds.No wind70%29.92 "HgN/A
7:00 AM77 °FPassing clouds.3 mph89%29.89 "HgN/A
6:00 AM75 °FPassing clouds.5 mph89%29.86 "HgN/A
5:00 AM75 °FPassing clouds.5 mph89%29.86 "HgN/A
4:00 AM73 °FPassing clouds.No wind94%29.86 "HgN/A
3:00 AM75 °FPassing clouds.1 mph89%29.86 "HgN/A
2:00 AM75 °FPassing clouds.5 mph94%29.86 "HgN/A
1:00 AM75 °FPassing clouds.2 mph94%29.89 "HgN/A
12:00 AM75 °FPassing clouds.2 mph94%29.89 "HgN/A
11:00 PM
Wed, May 4
77 °FPassing clouds.2 mph89%29.89 "HgN/A
10:00 PM77 °FPassing clouds.2 mph89%29.89 "HgN/A
9:00 PM79 °FPassing clouds.3 mph84%29.86 "HgN/A
8:00 PM79 °FPassing clouds.6 mph84%29.86 "HgN/A
7:00 PM79 °FPassing clouds.7 mph89%29.86 "HgN/A
Weather by CustomWeather, © 2016

See weather overviewHow to use our weather pages